| time (UTC) | temp F | wind direction | speed MPH | gust MPH | rain 1hr in | rain 24hr in | rain mn in | humidity % | barometer mb |
| 20260831132602 | 76 | 158 | 3.0 | 3.0 | 0.00 | 0.00 | 0.00 | 83 | 1010.5 |
| 20260831123202 | 75 | 135 | 0.0 | 4.0 | 0.00 | 0.00 | 0.00 | 86 | 1010.2 |
| 20260831122002 | 75 | 90 | 2.0 | 4.0 | 0.00 | 0.00 | 0.00 | 86 | 1009.8 |
| 20260831115802 | 75 | 113 | 3.0 | 3.0 | 0.00 | 0.00 | 0.00 | 86 | 1009.5 |
| 20260831114702 | 75 | 135 | 2.0 | 2.0 | 0.00 | 0.00 | 0.00 | 86 | 1009.5 |
| 20260831113602 | 75 | 135 | 2.0 | 2.0 | 0.00 | 0.00 | 0.00 | 86 | 1009.5 |
| 20260831112502 | 75 | 135 | 3.0 | 3.0 | 0.00 | 0.00 | 0.00 | 86 | 1009.1 |
| 20260831111302 | 75 | 135 | 0.0 | 0.0 | 0.00 | 0.00 | 0.00 | 86 | 1008.5 |
| 20260831110003 | 75 | 158 | 0.0 | 0.0 | 0.00 | 0.00 | 0.00 | 86 | 1008.5 |
| 20260831105002 | 75 | 158 | 0.0 | 2.0 | 0.00 | 0.00 | 0.00 | 86 | 1008.8 |
| 20260831103902 | 75 | 158 | 2.0 | 2.0 | 0.00 | 0.00 | 0.00 | 86 | 1008.8 |
| 20260831102803 | 74 | 158 | 0.0 | 0.0 | 0.00 | 0.00 | 0.00 | 88 | 1008.5 |
| 20260831101302 | 74 | 158 | 0.0 | 0.0 | 0.00 | 0.00 | 0.00 | 88 | 1008.8 |
| 20260831093703 | 74 | 135 | 0.0 | 0.0 | 0.00 | 0.00 | 0.00 | 88 | 1008.5 |
| 20260831091503 | 75 | 158 | 0.0 | 0.0 | 0.00 | 0.00 | 0.00 | 86 | 1008.1 |
| 20260831090502 | 75 | 158 | 0.0 | 0.0 | 0.00 | 0.00 | 0.00 | 86 | 1007.8 |
| 20260831085402 | 75 | 113 | 0.0 | 2.0 | 0.00 | 0.00 | 0.00 | 86 | 1008.1 |
| 20260831084302 | 75 | 135 | 0.0 | 0.0 | 0.00 | 0.00 | 0.00 | 86 | 1008.1 |
| 20260831083102 | 76 | 158 | 0.0 | 0.0 | 0.00 | 0.00 | 0.00 | 86 | 1007.8 |
| 20260831081902 | 76 | 158 | 0.0 | 0.0 | 0.00 | 0.00 | 0.00 | 86 | 1007.5 |
| 20260831074903 | 77 | 158 | 0.0 | 0.0 | 0.00 | 0.00 | 0.00 | 85 | 1007.8 |
| 20260831072503 | 77 | 180 | 0.0 | 0.0 | 0.00 | 0.00 | 0.00 | 85 | 1007.5 |
| 20260831064003 | 77 | 180 | 0.0 | 0.0 | 0.00 | 0.00 | 0.00 | 83 | 1008.1 |
| 20260831062602 | 77 | 180 | 0.0 | 1.0 | 0.00 | 0.00 | 0.00 | 83 | 1008.1 |
| 20260831061202 | 78 | 225 | 0.0 | 0.0 | 0.00 | 0.00 | 0.00 | 81 | 1007.8 |
| 20260831055002 | 78 | 225 | 0.0 | 0.0 | 0.00 | 0.00 | 0.00 | 81 | 1007.8 |
| 20260831053902 | 79 | 180 | 0.0 | 0.0 | 0.00 | 0.00 | 0.00 | 81 | 1007.8 |
| 20260831052502 | 79 | 180 | 0.0 | 0.0 | 0.00 | 0.00 | 0.00 | 81 | 1007.8 |
| 20260831045002 | 80 | 293 | 0.0 | 0.0 | 0.00 | 0.00 | 0.00 | 79 | 1007.8 |
| 20260831043902 | 81 | 113 | 0.0 | 0.0 | 0.00 | 0.00 | 0.00 | 78 | 1007.5 |
| 20260831042802 | 81 | 158 | 0.0 | 0.0 | 0.00 | 0.00 | 0.00 | 78 | 1007.5 |
| 20260831033902 | 81 | 158 | 0.0 | 0.0 | 0.00 | 0.00 | 0.00 | 75 | 1007.8 |
| 20260831032802 | 82 | 158 | 0.0 | 0.0 | 0.00 | 0.00 | 0.00 | 75 | 1007.8 |
| 20260831031702 | 82 | 135 | 0.0 | 0.0 | 0.00 | 0.00 | 0.00 | 75 | 1007.8 |
| 20260831030402 | 82 | 158 | 0.0 | 0.0 | 0.00 | 0.00 | 0.00 | 74 | 1007.8 |
| 20260831025306 | 82 | 135 | 0.0 | 0.0 | 0.00 | 0.00 | 0.00 | 73 | 1007.8 |
| 20260831023702 | 83 | 158 | 0.0 | 0.0 | 0.00 | 0.00 | 0.00 | 71 | 1007.8 |
| 20260831022402 | 83 | 158 | 0.0 | 0.0 | 0.00 | 0.00 | 0.00 | 71 | 1008.1 |
| 20260831014902 | 83 | 158 | 0.0 | 0.0 | 0.00 | 0.00 | 0.00 | 70 | 1007.5 |
| 20260831013702 | 84 | 113 | 0.0 | 0.0 | 0.00 | 0.00 | 0.00 | 70 | 1007.1 |
| 20260831012602 | 85 | 158 | 0.0 | 0.0 | 0.00 | 0.00 | 0.00 | 68 | 1007.1 |
| 20260831011502 | 86 | 135 | 0.0 | 0.0 | 0.00 | 0.00 | 0.00 | 66 | 1007.5 |
| 20260831010302 | 86 | 135 | 0.0 | 0.0 | 0.00 | 0.00 | 0.00 | 66 | 1007.1 |
| 20260831005202 | 87 | 158 | 0.0 | 0.0 | 0.00 | 0.00 | 0.00 | 65 | 1007.1 |
| 20260831004102 | 88 | 135 | 0.0 | 0.0 | 0.00 | 0.00 | 0.00 | 63 | 1007.1 |
| 20260831003004 | 89 | 158 | 0.0 | 0.0 | 0.00 | 0.00 | 0.00 | 63 | 1007.1 |
| 20260831001802 | 90 | 158 | 1.0 | 1.0 | 0.00 | 0.00 | 0.00 | 61 | 1007.1 |
| 20260831000702 | 90 | 90 | 2.0 | 2.0 | 0.00 | 0.00 | 0.00 | 60 | 1007.1 |
| 20260830235602 | 91 | 135 | 1.0 | 4.0 | 0.00 | 0.00 | 0.00 | 56 | 1007.1 |
| 20260830234502 | 91 | 158 | 2.0 | 2.0 | 0.00 | 0.00 | 0.00 | 56 | 1007.1 |
| 20260830233302 | 91 | 45 | 4.0 | 6.0 | 0.00 | 0.00 | 0.00 | 55 | 1007.5 |
| 20260830232202 | 92 | 158 | 3.0 | 4.0 | 0.00 | 0.00 | 0.00 | 55 | 1007.1 |
| 20260830231003 | 93 | 225 | 2.0 | 2.0 | 0.00 | 0.00 | 0.00 | 55 | 1007.1 |
| 20260830225902 | 93 | 113 | 2.0 | 2.0 | 0.00 | 0.00 | 0.00 | 55 | 1007.1 |
| 20260830224702 | 93 | 90 | 8.0 | 8.0 | 0.00 | 0.00 | 0.00 | 55 | 1007.1 |
| 20260830222402 | 92 | 158 | 4.0 | 6.0 | 0.00 | 0.00 | 0.00 | 54 | 1007.1 |
| 20260830221302 | 93 | 23 | 5.0 | 7.0 | 0.00 | 0.00 | 0.00 | 53 | 1006.8 |
| 20260830220202 | 93 | 113 | 3.0 | 6.0 | 0.00 | 0.00 | 0.00 | 53 | 1006.8 |
| 20260830215102 | 94 | 203 | 2.0 | 5.0 | 0.00 | 0.00 | 0.00 | 54 | 1006.8 |
| 20260830214002 | 92 | 158 | 2.0 | 5.0 | 0.00 | 0.00 | 0.00 | 54 | 1006.8 |
| 20260830212902 | 92 | 135 | 2.0 | 6.0 | 0.00 | 0.00 | 0.00 | 54 | 1006.8 |
| 20260830211802 | 92 | 90 | 9.0 | 9.0 | 0.00 | 0.00 | 0.00 | 54 | 1006.8 |
| 20260830210702 | 92 | 135 | 4.0 | 7.0 | 0.00 | 0.00 | 0.00 | 54 | 1006.8 |
| 20260830205602 | 89 | 135 | 4.0 | 6.0 | 0.00 | 0.00 | 0.00 | 55 | 1007.5 |
| 20260830204502 | 89 | 113 | 6.0 | 7.0 | 0.00 | 0.00 | 0.00 | 55 | 1007.5 |
| 20260830203302 | 88 | 135 | 3.0 | 6.0 | 0.00 | 0.00 | 0.00 | 55 | 1007.1 |
| 20260830202202 | 91 | 113 | 6.0 | 6.0 | 0.00 | 0.00 | 0.00 | 55 | 1007.5 |
| 20260830201002 | 88 | 180 | 2.0 | 5.0 | 0.00 | 0.00 | 0.00 | 58 | 1007.1 |
| 20260830195902 | 90 | 113 | 6.0 | 6.0 | 0.00 | 0.00 | 0.00 | 56 | 1007.5 |
| 20260830194902 | 89 | 113 | 6.0 | 6.0 | 0.00 | 0.00 | 0.00 | 59 | 1007.5 |
| 20260830193802 | 89 | 113 | 5.0 | 7.0 | 0.00 | 0.00 | 0.00 | 55 | 1007.8 |
| 20260830192702 | 89 | 158 | 4.0 | 8.0 | 0.00 | 0.00 | 0.00 | 55 | 1007.8 |
| 20260830191602 | 89 | 135 | 5.0 | 6.0 | 0.00 | 0.00 | 0.00 | 55 | 1007.8 |
| 20260830190402 | 89 | 180 | 2.0 | 4.0 | 0.00 | 0.00 | 0.00 | 55 | 1007.1 |
| 20260830184203 | 88 | 248 | 2.0 | 6.0 | 0.00 | 0.00 | 0.00 | 55 | 1007.5 |
| 20260830183102 | 87 | 135 | 3.0 | 5.0 | 0.00 | 0.00 | 0.00 | 59 | 1007.5 |
| 20260830182003 | 86 | 68 | 3.0 | 6.0 | 0.00 | 0.00 | 0.00 | 60 | 1007.8 |
| 20260830175802 | 85 | 68 | 7.0 | 7.0 | 0.00 | 0.00 | 0.00 | 59 | 1008.1 |
| 20260830174702 | 85 | 113 | 3.0 | 7.0 | 0.00 | 0.00 | 0.00 | 59 | 1007.8 |
| 20260830173603 | 87 | 203 | 2.0 | 7.0 | 0.00 | 0.00 | 0.00 | 55 | 1007.8 |
| 20260830172402 | 85 | 113 | 4.0 | 8.0 | 0.00 | 0.00 | 0.00 | 59 | 1008.1 |
| 20260830171302 | 85 | 113 | 2.0 | 6.0 | 0.00 | 0.00 | 0.00 | 59 | 1008.1 |
| 20260830165002 | 85 | 270 | 8.0 | 9.0 | 0.00 | 0.00 | 0.00 | 58 | 1007.8 |
| 20260830163902 | 85 | 180 | 3.0 | 6.0 | 0.00 | 0.00 | 0.00 | 56 | 1007.8 |
| 20260830162702 | 85 | 0 | 4.0 | 7.0 | 0.00 | 0.00 | 0.00 | 59 | 1007.8 |
| 20260830160402 | 82 | 113 | 2.0 | 5.0 | 0.00 | 0.00 | 0.00 | 63 | 1007.8 |
| 20260830155306 | 82 | 113 | 6.0 | 6.0 | 0.00 | 0.00 | 0.00 | 63 | 1007.8 |
| 20260830154202 | 82 | 135 | 3.0 | 5.0 | 0.00 | 0.00 | 0.00 | 63 | 1007.8 |
| 20260830153102 | 82 | 158 | 2.0 | 4.0 | 0.00 | 0.00 | 0.00 | 65 | 1007.8 |
| 20260830152002 | 82 | 203 | 4.0 | 5.0 | 0.00 | 0.00 | 0.00 | 63 | 1007.8 |
| 20260830145702 | 81 | 158 | 1.0 | 3.0 | 0.00 | 0.00 | 0.00 | 65 | 1007.5 |
| 20260830144502 | 81 | 225 | 3.0 | 3.0 | 0.00 | 0.00 | 0.00 | 65 | 1007.5 |
| 20260830142305 | 79 | 270 | 1.0 | 2.0 | 0.00 | 0.00 | 0.00 | 69 | 1007.8 |
| 20260830141202 | 78 | 158 | 3.0 | 4.0 | 0.00 | 0.00 | 0.00 | 68 | 1007.5 |
| 20260830140003 | 78 | 90 | 2.0 | 4.0 | 0.00 | 0.00 | 0.00 | 68 | 1007.8 |
| 20260830134903 | 78 | 135 | 3.0 | 7.0 | 0.00 | 0.00 | 0.00 | 68 | 1007.8 |
| 20260830133702 | 78 | 158 | 2.0 | 2.0 | 0.00 | 0.00 | 0.00 | 69 | 1007.5 |